owner,sensor,date,latitude,longitude,vertical_datum,sea_water_temperature,qcFlag
BP,ioos:station:wmo:42880:2,2023-08-01T00:08:00Z,27.2248,-90.0140,10.0,30.9,11111222
BP,ioos:station:wmo:42880:2,2023-08-01T00:18:00Z,27.2248,-90.0140,9.9,31.0,11111222
BP,ioos:station:wmo:42880:2,2023-08-01T00:28:00Z,27.2248,-90.0140,9.7,31.0,11111222
BP,ioos:station:wmo:42880:2,2023-08-01T00:38:00Z,27.2248,-90.0140,9.7,31.0,11111222
BP,ioos:station:wmo:42880:2,2023-08-01T00:48:00Z,27.2248,-90.0140,9.7,31.0,11111222
BP,ioos:station:wmo:42880:2,2023-08-01T00:58:00Z,27.2248,-90.0140,9.8,31.0,11111222
BP,ioos:station:wmo:42880:2,2023-08-01T01:08:00Z,27.2248,-90.0140,10.0,31.0,11111222
BP,ioos:station:wmo:42880:2,2023-08-01T01:18:00Z,27.2248,-90.0140,9.9,31.0,11111222
BP,ioos:station:wmo:42880:2,2023-08-01T01:28:00Z,27.2248,-90.0140,10.1,31.1,11111222
BP,ioos:station:wmo:42880:2,2023-08-01T01:38:00Z,27.2248,-90.0140,9.8,31.0,11111222
BP,ioos:station:wmo:42880:2,2023-08-01T01:48:00Z,27.2248,-90.0140,9.9,31.0,11111222
BP,ioos:station:wmo:42880:2,2023-08-01T01:58:00Z,27.2248,-90.0140,10.0,31.0,11111222
BP,ioos:station:wmo:42880:2,2023-08-01T02:08:00Z,27.2248,-90.0140,10.2,31.1,11111222
BP,ioos:station:wmo:42880:2,2023-08-01T02:18:00Z,27.2248,-90.0140,10.2,31.1,11111222
BP,ioos:station:wmo:42880:2,2023-08-01T02:28:00Z,27.2248,-90.0140,10.2,31.1,11111222
BP,ioos:station:wmo:42880:2,2023-08-01T02:38:00Z,27.2248,-90.0140,10.2,31.1,11111222
BP,ioos:station:wmo:42880:2,2023-08-01T02:48:00Z,27.2248,-90.0140,10.3,31.1,11111222
BP,ioos:station:wmo:42880:2,2023-08-01T02:58:00Z,27.2248,-90.0140,10.4,31.1,11111222
BP,ioos:station:wmo:42880:2,2023-08-01T03:08:00Z,27.2248,-90.0140,10.4,31.1,11111222
BP,ioos:station:wmo:42880:2,2023-08-01T03:18:00Z,27.2248,-90.0140,10.2,31.1,11111222
BP,ioos:station:wmo:42880:2,2023-08-01T03:28:00Z,27.2248,-90.0140,10.4,31.1,11111222
BP,ioos:station:wmo:42880:2,2023-08-01T03:38:00Z,27.2248,-90.0140,10.2,31.1,11111222
BP,ioos:station:wmo:42880:2,2023-08-01T03:48:00Z,27.2248,-90.0140,10.2,31.2,11111222
BP,ioos:station:wmo:42880:2,2023-08-01T03:58:00Z,27.2248,-90.0140,10.5,31.2,11111222
BP,ioos:station:wmo:42880:2,2023-08-01T04:08:00Z,27.2248,-90.0140,10.4,31.2,11111222
BP,ioos:station:wmo:42880:2,2023-08-01T04:18:00Z,27.2248,-90.0140,10.4,31.2,11111222
BP,ioos:station:wmo:42880:2,2023-08-01T04:28:00Z,27.2248,-90.0140,10.5,31.2,11111222
BP,ioos:station:wmo:42880:2,2023-08-01T04:38:00Z,27.2248,-90.0140,10.5,31.2,11111222
BP,ioos:station:wmo:42880:2,2023-08-01T04:48:00Z,27.2248,-90.0140,10.5,31.2,11111222
BP,ioos:station:wmo:42880:2,2023-08-01T04:58:00Z,27.2248,-90.0140,10.4,31.2,11111222
BP,ioos:station:wmo:42880:2,2023-08-01T05:08:00Z,27.2248,-90.0140,10.4,31.2,11111222
BP,ioos:station:wmo:42880:2,2023-08-01T05:18:00Z,27.2248,-90.0140,10.4,31.2,11111222
BP,ioos:station:wmo:42880:2,2023-08-01T05:28:00Z,27.2248,-90.0140,10.5,31.2,11111222
BP,ioos:station:wmo:42880:2,2023-08-01T05:38:00Z,27.2248,-90.0140,10.5,31.2,11111222
BP,ioos:station:wmo:42880:2,2023-08-01T05:48:00Z,27.2248,-90.0140,10.5,31.2,11111222
BP,ioos:station:wmo:42880:2,2023-08-01T05:58:00Z,27.2248,-90.0140,10.4,31.1,11111222
BP,ioos:station:wmo:42880:2,2023-08-01T06:08:00Z,27.2248,-90.0140,10.4,31.1,11111222
BP,ioos:station:wmo:42880:2,2023-08-01T06:18:00Z,27.2248,-90.0140,10.4,31.0,11111222
BP,ioos:station:wmo:42880:2,2023-08-01T06:28:00Z,27.2248,-90.0140,10.3,31.0,11111222
BP,ioos:station:wmo:42880:2,2023-08-01T06:38:00Z,27.2248,-90.0140,10.4,31.0,11111222
BP,ioos:station:wmo:42880:2,2023-08-01T06:48:00Z,27.2248,-90.0140,10.2,31.1,11111222
BP,ioos:station:wmo:42880:2,2023-08-01T06:58:00Z,27.2248,-90.0140,10.4,31.1,11111222
BP,ioos:station:wmo:42880:2,2023-08-01T07:08:00Z,27.2248,-90.0140,10.4,31.1,11111222
BP,ioos:station:wmo:42880:2,2023-08-01T07:18:00Z,27.2248,-90.0140,10.4,31.1,11111222
BP,ioos:station:wmo:42880:2,2023-08-01T07:28:00Z,27.2248,-90.0140,10.4,31.1,11111222
BP,ioos:station:wmo:42880:2,2023-08-01T07:38:00Z,27.2248,-90.0140,10.4,31.1,11111222
BP,ioos:station:wmo:42880:2,2023-08-01T07:48:00Z,27.2248,-90.0140,10.5,31.1,11111222
BP,ioos:station:wmo:42880:2,2023-08-01T07:58:00Z,27.2248,-90.0140,10.2,31.1,11111222
BP,ioos:station:wmo:42880:2,2023-08-01T08:08:00Z,27.2248,-90.0140,10.3,31.1,11111222
BP,ioos:station:wmo:42880:2,2023-08-01T08:18:00Z,27.2248,-90.0140,10.3,31.1,11111222
BP,ioos:station:wmo:42880:2,2023-08-01T08:28:00Z,27.2248,-90.0140,10.3,31.1,11111222
BP,ioos:station:wmo:42880:2,2023-08-01T08:38:00Z,27.2248,-90.0140,10.3,31.1,11111222
BP,ioos:station:wmo:42880:2,2023-08-01T08:48:00Z,27.2248,-90.0140,10.4,31.1,11111222
BP,ioos:station:wmo:42880:2,2023-08-01T08:58:00Z,27.2248,-90.0140,10.2,31.1,11111222
BP,ioos:station:wmo:42880:2,2023-08-01T09:08:00Z,27.2248,-90.0140,10.2,31.0,11111222
BP,ioos:station:wmo:42880:2,2023-08-01T09:18:00Z,27.2248,-90.0140,10.0,31.0,11111222
BP,ioos:station:wmo:42880:2,2023-08-01T09:28:00Z,27.2248,-90.0140,10.2,31.0,11111222
BP,ioos:station:wmo:42880:2,2023-08-01T09:38:00Z,27.2248,-90.0140,10.2,31.0,11111222
BP,ioos:station:wmo:42880:2,2023-08-01T09:48:00Z,27.2248,-90.0140,10.2,31.0,11111222
BP,ioos:station:wmo:42880:2,2023-08-01T09:58:00Z,27.2248,-90.0140,10.3,31.0,11111222
BP,ioos:station:wmo:42880:2,2023-08-01T10:08:00Z,27.2248,-90.0140,10.4,30.9,11111222
BP,ioos:station:wmo:42880:2,2023-08-01T10:18:00Z,27.2248,-90.0140,10.4,30.9,11111222
BP,ioos:station:wmo:42880:2,2023-08-01T10:28:00Z,27.2248,-90.0140,10.3,30.9,11111222
BP,ioos:station:wmo:42880:2,2023-08-01T10:38:00Z,27.2248,-90.0140,10.0,30.8,11111222
BP,ioos:station:wmo:42880:2,2023-08-01T10:48:00Z,27.2248,-90.0140,10.3,30.8,11111222
BP,ioos:station:wmo:42880:2,2023-08-01T10:58:00Z,27.2248,-90.0140,10.3,30.8,11111222
BP,ioos:station:wmo:42880:2,2023-08-01T11:08:00Z,27.2248,-90.0140,10.2,30.8,11111222
BP,ioos:station:wmo:42880:2,2023-08-01T11:18:00Z,27.2248,-90.0140,10.1,30.8,11111222
BP,ioos:station:wmo:42880:2,2023-08-01T11:28:00Z,27.2248,-90.0140,9.9,30.7,11111222
BP,ioos:station:wmo:42880:2,2023-08-01T11:38:00Z,27.2248,-90.0140,10.0,30.7,11111222
BP,ioos:station:wmo:42880:2,2023-08-01T11:48:00Z,27.2248,-90.0140,9.9,30.7,11111222
BP,ioos:station:wmo:42880:2,2023-08-01T11:58:00Z,27.2248,-90.0140,10.0,30.8,11111222
BP,ioos:station:wmo:42880:2,2023-08-01T12:08:00Z,27.2248,-90.0140,10.0,30.7,11111222
BP,ioos:station:wmo:42880:2,2023-08-01T12:18:00Z,27.2248,-90.0140,9.7,30.7,11111222
BP,ioos:station:wmo:42880:2,2023-08-01T12:28:00Z,27.2248,-90.0140,9.6,30.8,11111222
BP,ioos:station:wmo:42880:2,2023-08-01T12:38:00Z,27.2248,-90.0140,9.7,30.8,11111222
BP,ioos:station:wmo:42880:2,2023-08-01T12:48:00Z,27.2248,-90.0140,9.6,30.8,11111222
BP,ioos:station:wmo:42880:2,2023-08-01T12:58:00Z,27.2248,-90.0140,9.6,30.8,11111222
BP,ioos:station:wmo:42880:2,2023-08-01T13:08:00Z,27.2248,-90.0140,9.7,30.8,11111222
BP,ioos:station:wmo:42880:2,2023-08-01T13:18:00Z,27.2248,-90.0140,9.7,30.8,11111222
BP,ioos:station:wmo:42880:2,2023-08-01T13:28:00Z,27.2248,-90.0140,9.7,30.8,11111222
BP,ioos:station:wmo:42880:2,2023-08-01T13:38:00Z,27.2248,-90.0140,9.6,30.8,11111222
BP,ioos:station:wmo:42880:2,2023-08-01T13:48:00Z,27.2248,-90.0140,9.6,30.8,11111222
BP,ioos:station:wmo:42880:2,2023-08-01T13:58:00Z,27.2248,-90.0140,9.4,30.8,11111222
BP,ioos:station:wmo:42880:2,2023-08-01T14:08:00Z,27.2248,-90.0140,9.4,30.8,11111222
BP,ioos:station:wmo:42880:2,2023-08-01T14:18:00Z,27.2248,-90.0140,9.3,30.8,11111222
BP,ioos:station:wmo:42880:2,2023-08-01T14:28:00Z,27.2248,-90.0140,9.4,30.8,11111222
BP,ioos:station:wmo:42880:2,2023-08-01T14:38:00Z,27.2248,-90.0140,9.4,30.8,11111222
BP,ioos:station:wmo:42880:2,2023-08-01T14:48:00Z,27.2248,-90.0140,9.3,30.8,11111222
BP,ioos:station:wmo:42880:2,2023-08-01T14:58:00Z,27.2248,-90.0140,9.1,30.8,11111222
BP,ioos:station:wmo:42880:2,2023-08-01T15:08:00Z,27.2248,-90.0140,9.1,30.8,11111222
BP,ioos:station:wmo:42880:2,2023-08-01T15:18:00Z,27.2248,-90.0140,8.9,30.8,11111222
BP,ioos:station:wmo:42880:2,2023-08-01T15:28:00Z,27.2248,-90.0140,9.2,30.8,11111222
BP,ioos:station:wmo:42880:2,2023-08-01T15:38:00Z,27.2248,-90.0140,9.1,30.8,11111222
BP,ioos:station:wmo:42880:2,2023-08-01T15:48:00Z,27.2248,-90.0140,9.2,30.8,11111222
BP,ioos:station:wmo:42880:2,2023-08-01T15:58:00Z,27.2248,-90.0140,9.2,30.8,11111222
BP,ioos:station:wmo:42880:2,2023-08-01T16:08:00Z,27.2248,-90.0140,9.3,30.9,11111222
BP,ioos:station:wmo:42880:2,2023-08-01T16:18:00Z,27.2248,-90.0140,9.2,30.9,11111222
BP,ioos:station:wmo:42880:2,2023-08-01T16:28:00Z,27.2248,-90.0140,9.3,30.9,11111222
BP,ioos:station:wmo:42880:2,2023-08-01T16:38:00Z,27.2248,-90.0140,9.3,30.9,11111222
BP,ioos:station:wmo:42880:2,2023-08-01T16:48:00Z,27.2248,-90.0140,9.1,30.9,11111222
BP,ioos:station:wmo:42880:2,2023-08-01T16:58:00Z,27.2248,-90.0140,9.3,30.9,11111222
BP,ioos:station:wmo:42880:2,2023-08-01T17:08:00Z,27.2248,-90.0140,9.1,30.9,11111222
BP,ioos:station:wmo:42880:2,2023-08-01T17:18:00Z,27.2248,-90.0140,9.1,30.9,11111222
BP,ioos:station:wmo:42880:2,2023-08-01T17:28:00Z,27.2248,-90.0140,9.0,31.0,11111222
BP,ioos:station:wmo:42880:2,2023-08-01T17:38:00Z,27.2248,-90.0140,8.9,31.0,11111222
BP,ioos:station:wmo:42880:2,2023-08-01T17:48:00Z,27.2248,-90.0140,8.9,31.0,11111222
BP,ioos:station:wmo:42880:2,2023-08-01T17:58:00Z,27.2248,-90.0140,9.0,31.0,11111222
BP,ioos:station:wmo:42880:2,2023-08-01T18:08:00Z,27.2248,-90.0140,8.9,31.0,11111222
BP,ioos:station:wmo:42880:2,2023-08-01T18:18:00Z,27.2248,-90.0140,9.0,31.0,11111222
BP,ioos:station:wmo:42880:2,2023-08-01T18:28:00Z,27.2248,-90.0140,9.1,31.1,11111222
BP,ioos:station:wmo:42880:2,2023-08-01T18:38:00Z,27.2248,-90.0140,8.9,31.1,11111222
BP,ioos:station:wmo:42880:2,2023-08-01T18:48:00Z,27.2248,-90.0140,9.1,31.1,11111222
BP,ioos:station:wmo:42880:2,2023-08-01T18:58:00Z,27.2248,-90.0140,9.1,31.1,11111222
BP,ioos:station:wmo:42880:2,2023-08-01T19:08:00Z,27.2248,-90.0140,9.0,31.1,11111222
BP,ioos:station:wmo:42880:2,2023-08-01T19:18:00Z,27.2248,-90.0140,9.0,31.1,11111222
BP,ioos:station:wmo:42880:2,2023-08-01T19:28:00Z,27.2248,-90.0140,9.0,31.1,11111222
BP,ioos:station:wmo:42880:2,2023-08-01T19:38:00Z,27.2248,-90.0140,9.0,31.1,11111222
BP,ioos:station:wmo:42880:2,2023-08-01T19:48:00Z,27.2248,-90.0140,9.0,31.1,11111222
BP,ioos:station:wmo:42880:2,2023-08-01T19:58:00Z,27.2248,-90.0140,9.0,31.1,11111222
BP,ioos:station:wmo:42880:2,2023-08-01T20:08:00Z,27.2248,-90.0140,9.0,31.1,11111222
BP,ioos:station:wmo:42880:2,2023-08-01T20:18:00Z,27.2248,-90.0140,9.1,31.1,11111222
BP,ioos:station:wmo:42880:2,2023-08-01T20:28:00Z,27.2248,-90.0140,9.1,31.1,11111222
BP,ioos:station:wmo:42880:2,2023-08-01T20:38:00Z,27.2248,-90.0140,9.1,31.1,11111222
BP,ioos:station:wmo:42880:2,2023-08-01T20:48:00Z,27.2248,-90.0140,8.9,31.1,11111222
BP,ioos:station:wmo:42880:2,2023-08-01T20:58:00Z,27.2248,-90.0140,9.0,31.1,11111222
BP,ioos:station:wmo:42880:2,2023-08-01T21:08:00Z,27.2248,-90.0140,9.0,31.1,11111222
BP,ioos:station:wmo:42880:2,2023-08-01T21:18:00Z,27.2248,-90.0140,9.0,31.1,11111222
BP,ioos:station:wmo:42880:2,2023-08-01T21:28:00Z,27.2248,-90.0140,8.9,31.1,11111222
BP,ioos:station:wmo:42880:2,2023-08-01T21:38:00Z,27.2248,-90.0140,8.9,31.1,11111222
BP,ioos:station:wmo:42880:2,2023-08-01T21:48:00Z,27.2248,-90.0140,9.0,31.1,11111222
BP,ioos:station:wmo:42880:2,2023-08-01T21:58:00Z,27.2248,-90.0140,8.9,31.1,11111222
BP,ioos:station:wmo:42880:2,2023-08-01T22:08:00Z,27.2248,-90.0140,8.9,31.1,11111222
BP,ioos:station:wmo:42880:2,2023-08-01T22:18:00Z,27.2248,-90.0140,8.9,31.1,11111222
BP,ioos:station:wmo:42880:2,2023-08-01T22:28:00Z,27.2248,-90.0140,8.9,31.1,11111222
BP,ioos:station:wmo:42880:2,2023-08-01T22:38:00Z,27.2248,-90.0140,9.0,31.1,11111222
BP,ioos:station:wmo:42880:2,2023-08-01T22:48:00Z,27.2248,-90.0140,9.0,31.1,11111222
BP,ioos:station:wmo:42880:2,2023-08-01T22:58:00Z,27.2248,-90.0140,8.9,31.1,11111222
BP,ioos:station:wmo:42880:2,2023-08-01T23:08:00Z,27.2248,-90.0140,9.1,31.1,11111222
BP,ioos:station:wmo:42880:2,2023-08-01T23:18:00Z,27.2248,-90.0140,9.0,31.1,11111222
BP,ioos:station:wmo:42880:2,2023-08-01T23:28:00Z,27.2248,-90.0140,9.0,31.1,11111222
BP,ioos:station:wmo:42880:2,2023-08-01T23:38:00Z,27.2248,-90.0140,8.9,31.1,11111222
BP,ioos:station:wmo:42880:2,2023-08-01T23:48:00Z,27.2248,-90.0140,9.0,31.1,11111222
BP,ioos:station:wmo:42880:2,2023-08-01T23:58:00Z,27.2248,-90.0140,9.0,31.1,11111222
BP,ioos:station:wmo:42880:2,2023-08-02T00:08:00Z,27.2248,-90.0140,8.9,31.1,11111222
BP,ioos:station:wmo:42880:2,2023-08-02T00:18:00Z,27.2248,-90.0140,9.2,31.1,11111222
BP,ioos:station:wmo:42880:2,2023-08-02T00:28:00Z,27.2248,-90.0140,9.1,31.1,11111222
BP,ioos:station:wmo:42880:2,2023-08-02T00:38:00Z,27.2248,-90.0140,9.1,31.1,11111222
BP,ioos:station:wmo:42880:2,2023-08-02T00:48:00Z,27.2248,-90.0140,9.0,31.1,11111222
BP,ioos:station:wmo:42880:2,2023-08-02T00:58:00Z,27.2248,-90.0140,9.0,31.1,11111222
BP,ioos:station:wmo:42880:2,2023-08-02T01:08:00Z,27.2248,-90.0140,9.0,31.1,11111222
BP,ioos:station:wmo:42880:2,2023-08-02T01:18:00Z,27.2248,-90.0140,9.1,31.1,11111222
BP,ioos:station:wmo:42880:2,2023-08-02T01:28:00Z,27.2248,-90.0140,9.2,31.1,11111222
BP,ioos:station:wmo:42880:2,2023-08-02T01:38:00Z,27.2248,-90.0140,9.1,31.1,11111222
BP,ioos:station:wmo:42880:2,2023-08-02T01:48:00Z,27.2248,-90.0140,9.4,31.1,11111222
BP,ioos:station:wmo:42880:2,2023-08-02T01:58:00Z,27.2248,-90.0140,9.4,31.1,11111222
BP,ioos:station:wmo:42880:2,2023-08-02T02:08:00Z,27.2248,-90.0140,9.4,31.1,11111222
BP,ioos:station:wmo:42880:2,2023-08-02T02:18:00Z,27.2248,-90.0140,9.4,31.1,11111222
BP,ioos:station:wmo:42880:2,2023-08-02T02:28:00Z,27.2248,-90.0140,9.4,31.1,11111222
BP,ioos:station:wmo:42880:2,2023-08-02T02:38:00Z,27.2248,-90.0140,9.5,31.1,11111222
BP,ioos:station:wmo:42880:2,2023-08-02T02:48:00Z,27.2248,-90.0140,9.7,31.1,11111222
BP,ioos:station:wmo:42880:2,2023-08-02T02:58:00Z,27.2248,-90.0140,9.6,31.2,11111222
BP,ioos:station:wmo:42880:2,2023-08-02T03:08:00Z,27.2248,-90.0140,9.7,31.2,11111222
BP,ioos:station:wmo:42880:2,2023-08-02T03:18:00Z,27.2248,-90.0140,9.6,31.2,11111222
BP,ioos:station:wmo:42880:2,2023-08-02T03:28:00Z,27.2248,-90.0140,9.6,31.2,11111222
BP,ioos:station:wmo:42880:2,2023-08-02T03:38:00Z,27.2248,-90.0140,9.8,31.2,11111222
BP,ioos:station:wmo:42880:2,2023-08-02T03:48:00Z,27.2248,-90.0140,9.8,31.2,11111222
BP,ioos:station:wmo:42880:2,2023-08-02T03:58:00Z,27.2248,-90.0140,9.9,31.1,11111222
BP,ioos:station:wmo:42880:2,2023-08-02T04:08:00Z,27.2248,-90.0140,10.1,31.1,11111222
BP,ioos:station:wmo:42880:2,2023-08-02T04:18:00Z,27.2248,-90.0140,10.1,31.1,11111222
BP,ioos:station:wmo:42880:2,2023-08-02T04:28:00Z,27.2248,-90.0140,9.9,31.1,11111222
BP,ioos:station:wmo:42880:2,2023-08-02T04:38:00Z,27.2248,-90.0140,10.1,31.1,11111222
BP,ioos:station:wmo:42880:2,2023-08-02T04:48:00Z,27.2248,-90.0140,10.1,31.1,11111222
BP,ioos:station:wmo:42880:2,2023-08-02T04:58:00Z,27.2248,-90.0140,10.0,31.1,11111222
BP,ioos:station:wmo:42880:2,2023-08-02T05:08:00Z,27.2248,-90.0140,10.1,31.1,11111222
BP,ioos:station:wmo:42880:2,2023-08-02T05:18:00Z,27.2248,-90.0140,10.0,31.1,11111222
BP,ioos:station:wmo:42880:2,2023-08-02T05:28:00Z,27.2248,-90.0140,10.2,31.1,11111222
BP,ioos:station:wmo:42880:2,2023-08-02T05:38:00Z,27.2248,-90.0140,10.0,31.1,11111222
BP,ioos:station:wmo:42880:2,2023-08-02T05:48:00Z,27.2248,-90.0140,10.1,31.1,11111222
BP,ioos:station:wmo:42880:2,2023-08-02T05:58:00Z,27.2248,-90.0140,10.0,31.1,11111222
BP,ioos:station:wmo:42880:2,2023-08-02T06:08:00Z,27.2248,-90.0140,10.0,31.1,11111222
BP,ioos:station:wmo:42880:2,2023-08-02T06:18:00Z,27.2248,-90.0140,10.1,31.1,11111222
BP,ioos:station:wmo:42880:2,2023-08-02T06:28:00Z,27.2248,-90.0140,10.3,31.1,11111222
BP,ioos:station:wmo:42880:2,2023-08-02T06:38:00Z,27.2248,-90.0140,9.8,31.1,11111222
BP,ioos:station:wmo:42880:2,2023-08-02T06:48:00Z,27.2248,-90.0140,10.0,31.1,11111222
BP,ioos:station:wmo:42880:2,2023-08-02T06:58:00Z,27.2248,-90.0140,9.9,31.1,11111222
BP,ioos:station:wmo:42880:2,2023-08-02T07:08:00Z,27.2248,-90.0140,10.1,31.1,11111222
BP,ioos:station:wmo:42880:2,2023-08-02T07:18:00Z,27.2248,-90.0140,10.1,31.1,11111222
BP,ioos:station:wmo:42880:2,2023-08-02T07:28:00Z,27.2248,-90.0140,10.1,31.1,11111222
BP,ioos:station:wmo:42880:2,2023-08-02T07:38:00Z,27.2248,-90.0140,10.0,31.1,11111222
BP,ioos:station:wmo:42880:2,2023-08-02T07:48:00Z,27.2248,-90.0140,10.1,31.1,11111222
BP,ioos:station:wmo:42880:2,2023-08-02T07:58:00Z,27.2248,-90.0140,10.0,31.1,11111222
BP,ioos:station:wmo:42880:2,2023-08-02T08:08:00Z,27.2248,-90.0140,9.9,31.1,11111222
BP,ioos:station:wmo:42880:2,2023-08-02T08:18:00Z,27.2248,-90.0140,10.0,31.1,11111222
BP,ioos:station:wmo:42880:2,2023-08-02T08:28:00Z,27.2248,-90.0140,9.8,31.1,11111222
BP,ioos:station:wmo:42880:2,2023-08-02T08:38:00Z,27.2248,-90.0140,9.8,31.1,11111222
BP,ioos:station:wmo:42880:2,2023-08-02T08:48:00Z,27.2248,-90.0140,9.8,31.1,11111222
BP,ioos:station:wmo:42880:2,2023-08-02T08:58:00Z,27.2248,-90.0140,9.8,31.1,11111222
BP,ioos:station:wmo:42880:2,2023-08-02T09:08:00Z,27.2248,-90.0140,9.9,31.1,11111222
BP,ioos:station:wmo:42880:2,2023-08-02T09:18:00Z,27.2248,-90.0140,9.9,31.1,11111222
BP,ioos:station:wmo:42880:2,2023-08-02T09:28:00Z,27.2248,-90.0140,9.8,31.1,11111222
BP,ioos:station:wmo:42880:2,2023-08-02T09:38:00Z,27.2248,-90.0140,9.9,31.1,11111222
BP,ioos:station:wmo:42880:2,2023-08-02T09:48:00Z,27.2248,-90.0140,10.0,31.1,11111222
BP,ioos:station:wmo:42880:2,2023-08-02T09:58:00Z,27.2248,-90.0140,9.9,31.1,11111222
BP,ioos:station:wmo:42880:2,2023-08-02T10:08:00Z,27.2248,-90.0140,9.9,31.1,11111222
BP,ioos:station:wmo:42880:2,2023-08-02T10:18:00Z,27.2248,-90.0140,9.8,31.1,11111222
BP,ioos:station:wmo:42880:2,2023-08-02T10:28:00Z,27.2248,-90.0140,9.9,31.1,11111222
BP,ioos:station:wmo:42880:2,2023-08-02T10:38:00Z,27.2248,-90.0140,9.8,31.1,11111222
BP,ioos:station:wmo:42880:2,2023-08-02T10:48:00Z,27.2248,-90.0140,9.8,31.1,11111222
BP,ioos:station:wmo:42880:2,2023-08-02T10:58:00Z,27.2248,-90.0140,9.8,31.1,11111222
BP,ioos:station:wmo:42880:2,2023-08-02T11:08:00Z,27.2248,-90.0140,9.8,31.1,11111222
BP,ioos:station:wmo:42880:2,2023-08-02T11:18:00Z,27.2248,-90.0140,9.8,31.1,11111222
BP,ioos:station:wmo:42880:2,2023-08-02T11:28:00Z,27.2248,-90.0140,9.8,31.1,11111222
BP,ioos:station:wmo:42880:2,2023-08-02T11:38:00Z,27.2248,-90.0140,9.8,31.1,11111222
BP,ioos:station:wmo:42880:2,2023-08-02T11:48:00Z,27.2248,-90.0140,9.5,31.1,11111222
BP,ioos:station:wmo:42880:2,2023-08-02T11:58:00Z,27.2248,-90.0140,9.7,31.1,11111222
BP,ioos:station:wmo:42880:2,2023-08-02T12:08:00Z,27.2248,-90.0140,9.8,31.1,11111222
BP,ioos:station:wmo:42880:2,2023-08-02T12:18:00Z,27.2248,-90.0140,9.9,31.1,11111222
BP,ioos:station:wmo:42880:2,2023-08-02T12:28:00Z,27.2248,-90.0140,9.7,31.1,11111222
BP,ioos:station:wmo:42880:2,2023-08-02T12:38:00Z,27.2248,-90.0140,9.7,31.1,11111222
BP,ioos:station:wmo:42880:2,2023-08-02T12:48:00Z,27.2248,-90.0140,9.7,31.1,11111222
BP,ioos:station:wmo:42880:2,2023-08-02T12:58:00Z,27.2248,-90.0140,9.7,31.1,11111222
BP,ioos:station:wmo:42880:2,2023-08-02T13:08:00Z,27.2248,-90.0140,9.5,31.1,11111222
BP,ioos:station:wmo:42880:2,2023-08-02T13:18:00Z,27.2248,-90.0140,9.7,31.1,11111222
BP,ioos:station:wmo:42880:2,2023-08-02T13:28:00Z,27.2248,-90.0140,9.6,31.2,11111222
BP,ioos:station:wmo:42880:2,2023-08-02T13:38:00Z,27.2248,-90.0140,9.5,31.2,11111222
BP,ioos:station:wmo:42880:2,2023-08-02T13:48:00Z,27.2248,-90.0140,9.4,31.2,11111222
BP,ioos:station:wmo:42880:2,2023-08-02T13:58:00Z,27.2248,-90.0140,9.5,31.2,11111222
BP,ioos:station:wmo:42880:2,2023-08-02T14:08:00Z,27.2248,-90.0140,9.4,31.2,11111222
BP,ioos:station:wmo:42880:2,2023-08-02T14:18:00Z,27.2248,-90.0140,9.4,31.2,11111222
BP,ioos:station:wmo:42880:2,2023-08-02T14:28:00Z,27.2248,-90.0140,9.4,31.1,11111222
BP,ioos:station:wmo:42880:2,2023-08-02T14:38:00Z,27.2248,-90.0140,9.5,31.1,11111222
BP,ioos:station:wmo:42880:2,2023-08-02T14:48:00Z,27.2248,-90.0140,9.4,31.1,11111222
BP,ioos:station:wmo:42880:2,2023-08-02T14:58:00Z,27.2248,-90.0140,9.5,31.1,11111222
BP,ioos:station:wmo:42880:2,2023-08-02T15:08:00Z,27.2248,-90.0140,9.5,31.1,11111222
BP,ioos:station:wmo:42880:2,2023-08-02T15:18:00Z,27.2248,-90.0140,9.3,31.1,11111222
BP,ioos:station:wmo:42880:2,2023-08-02T15:28:00Z,27.2248,-90.0140,9.5,31.1,11111222
BP,ioos:station:wmo:42880:2,2023-08-02T15:38:00Z,27.2248,-90.0140,9.5,31.1,11111222
BP,ioos:station:wmo:42880:2,2023-08-02T15:48:00Z,27.2248,-90.0140,9.4,31.1,11111222
BP,ioos:station:wmo:42880:2,2023-08-02T15:58:00Z,27.2248,-90.0140,9.5,31.1,11111222
BP,ioos:station:wmo:42880:2,2023-08-02T16:08:00Z,27.2248,-90.0140,9.5,31.2,11111222
BP,ioos:station:wmo:42880:2,2023-08-02T16:18:00Z,27.2248,-90.0140,9.4,31.2,11111222
BP,ioos:station:wmo:42880:2,2023-08-02T16:28:00Z,27.2248,-90.0140,9.5,31.2,11111222
BP,ioos:station:wmo:42880:2,2023-08-02T16:38:00Z,27.2248,-90.0140,9.4,31.2,11111222
BP,ioos:station:wmo:42880:2,2023-08-02T16:48:00Z,27.2248,-90.0140,9.4,31.2,11111222
BP,ioos:station:wmo:42880:2,2023-08-02T16:58:00Z,27.2248,-90.0140,9.3,31.2,11111222
BP,ioos:station:wmo:42880:2,2023-08-02T17:08:00Z,27.2248,-90.0140,9.4,31.3,11111222
BP,ioos:station:wmo:42880:2,2023-08-02T17:18:00Z,27.2248,-90.0140,9.7,31.3,11111222
BP,ioos:station:wmo:42880:2,2023-08-02T17:28:00Z,27.2248,-90.0140,10.1,31.4,11111222
BP,ioos:station:wmo:42880:2,2023-08-02T17:38:00Z,27.2248,-90.0140,9.9,31.4,11111222
BP,ioos:station:wmo:42880:2,2023-08-02T17:48:00Z,27.2248,-90.0140,10.1,31.4,11111222
BP,ioos:station:wmo:42880:2,2023-08-02T17:58:00Z,27.2248,-90.0140,10.2,31.4,11111222
BP,ioos:station:wmo:42880:2,2023-08-02T18:08:00Z,27.2248,-90.0140,10.0,31.4,11111222
BP,ioos:station:wmo:42880:2,2023-08-02T18:18:00Z,27.2248,-90.0140,10.1,31.4,11111222
BP,ioos:station:wmo:42880:2,2023-08-02T18:28:00Z,27.2248,-90.0140,10.1,31.3,11111222
BP,ioos:station:wmo:42880:2,2023-08-02T18:38:00Z,27.2248,-90.0140,9.9,31.3,11111222
BP,ioos:station:wmo:42880:2,2023-08-02T18:48:00Z,27.2248,-90.0140,9.9,31.4,11111222
BP,ioos:station:wmo:42880:2,2023-08-02T18:58:00Z,27.2248,-90.0140,9.9,31.4,11111222
BP,ioos:station:wmo:42880:2,2023-08-02T19:08:00Z,27.2248,-90.0140,9.5,31.4,11111222
BP,ioos:station:wmo:42880:2,2023-08-02T19:18:00Z,27.2248,-90.0140,9.2,31.3,11111222
BP,ioos:station:wmo:42880:2,2023-08-02T19:28:00Z,27.2248,-90.0140,9.3,31.3,11111222
BP,ioos:station:wmo:42880:2,2023-08-02T19:38:00Z,27.2248,-90.0140,9.1,31.3,11111222
BP,ioos:station:wmo:42880:2,2023-08-02T19:48:00Z,27.2248,-90.0140,9.4,31.3,11111222
BP,ioos:station:wmo:42880:2,2023-08-02T19:58:00Z,27.2248,-90.0140,9.2,31.3,11111222
BP,ioos:station:wmo:42880:2,2023-08-02T20:08:00Z,27.2248,-90.0140,9.3,31.3,11111222
BP,ioos:station:wmo:42880:2,2023-08-02T20:18:00Z,27.2248,-90.0140,9.3,31.3,11111222
BP,ioos:station:wmo:42880:2,2023-08-02T20:28:00Z,27.2248,-90.0140,9.3,31.3,11111222
BP,ioos:station:wmo:42880:2,2023-08-02T20:38:00Z,27.2248,-90.0140,9.2,31.3,11111222
BP,ioos:station:wmo:42880:2,2023-08-02T20:48:00Z,27.2248,-90.0140,9.2,31.4,11111222
BP,ioos:station:wmo:42880:2,2023-08-02T20:58:00Z,27.2248,-90.0140,9.2,31.4,11111222
BP,ioos:station:wmo:42880:2,2023-08-02T21:08:00Z,27.2248,-90.0140,9.1,31.4,11111222
BP,ioos:station:wmo:42880:2,2023-08-02T21:18:00Z,27.2248,-90.0140,9.2,31.4,11111222
BP,ioos:station:wmo:42880:2,2023-08-02T21:28:00Z,27.2248,-90.0140,9.2,31.4,11111222
BP,ioos:station:wmo:42880:2,2023-08-02T21:38:00Z,27.2248,-90.0140,9.2,31.5,11111222
BP,ioos:station:wmo:42880:2,2023-08-02T21:48:00Z,27.2248,-90.0140,9.2,31.5,11111222
BP,ioos:station:wmo:42880:2,2023-08-02T21:58:00Z,27.2248,-90.0140,9.2,31.5,11111222
BP,ioos:station:wmo:42880:2,2023-08-02T22:08:00Z,27.2248,-90.0140,9.4,31.5,11111222
BP,ioos:station:wmo:42880:2,2023-08-02T22:18:00Z,27.2248,-90.0140,9.5,31.5,11111222
BP,ioos:station:wmo:42880:2,2023-08-02T22:28:00Z,27.2248,-90.0140,9.5,31.4,11111222
BP,ioos:station:wmo:42880:2,2023-08-02T22:38:00Z,27.2248,-90.0140,9.5,31.4,11111222